TimeCDT,TemperatureF,Dew PointF,Humidity,Sea Level PressureIn,VisibilityMPH,Wind Direction,Wind SpeedMPH,Gust SpeedMPH,PrecipitationIn,Events,Conditions,WindDirDegrees,DateUTC
12:25 AM,66.2,64.4,94,29.68,-9999.0,North,12.7,28.8,0.02,,Unknown,360,2013-09-19 05:25:00
12:56 AM,66.0,62.1,87,29.62,-9999.0,NNE,5.8,-,0.02,,Unknown,20,2013-09-19 05:56:00
1:56 AM,63.0,61.0,93,29.59,-9999.0,Calm,Calm,-,N/A,,Unknown,0,2013-09-19 06:56:00
2:56 AM,61.0,60.1,97,29.57,-9999.0,West,8.1,-,N/A,,Unknown,270,2013-09-19 07:56:00
3:56 AM,61.0,60.1,97,29.56,-9999.0,Calm,Calm,-,N/A,,Unknown,0,2013-09-19 08:56:00
4:56 AM,62.1,60.1,93,29.61,-9999.0,Calm,Calm,-,N/A,,Unknown,0,2013-09-19 09:56:00
5:56 AM,63.0,61.0,93,29.61,-9999.0,NW,5.8,-,N/A,,Unknown,310,2013-09-19 10:56:00
6:56 AM,62.1,61.0,96,29.62,-9999.0,NW,4.6,-,0.01,,Unknown,310,2013-09-19 11:56:00
7:56 AM,64.9,61.0,87,29.66,-9999.0,NW,5.8,-,N/A,,Unknown,310,2013-09-19 12:56:00
8:56 AM,64.0,60.1,87,29.68,-9999.0,NW,8.1,-,N/A,,Unknown,320,2013-09-19 13:56:00
9:56 AM,63.0,57.9,84,29.70,-9999.0,NNW,16.1,25.3,N/A,,Unknown,330,2013-09-19 14:56:00
10:56 AM,64.9,55.9,73,29.70,-9999.0,NNW,18.4,27.6,N/A,,Unknown,340,2013-09-19 15:56:00
11:56 AM,70.0,55.0,59,29.75,-9999.0,NNW,13.8,21.9,N/A,,Unknown,330,2013-09-19 16:56:00
12:56 PM,73.0,53.1,49,29.76,-9999.0,NNW,15.0,20.7,N/A,,Unknown,340,2013-09-19 17:56:00
1:56 PM,75.0,48.9,40,29.76,-9999.0,NNW,15.0,24.2,N/A,,Unknown,340,2013-09-19 18:56:00
2:56 PM,77.0,46.9,34,29.76,-9999.0,North,12.7,21.9,N/A,,Unknown,350,2013-09-19 19:56:00
3:56 PM,75.0,50.0,41,29.76,-9999.0,NW,13.8,21.9,N/A,,Unknown,320,2013-09-19 20:56:00
4:56 PM,71.1,48.9,45,29.78,-9999.0,NNW,15.0,23.0,N/A,,Unknown,330,2013-09-19 21:56:00
5:56 PM,69.1,48.9,49,29.80,-9999.0,WNW,19.6,25.3,N/A,,Unknown,300,2013-09-19 22:56:00
6:56 PM,64.0,48.9,58,29.82,-9999.0,NW,17.3,26.5,N/A,,Unknown,310,2013-09-19 23:56:00
7:56 PM,60.1,51.1,72,29.86,-9999.0,NW,12.7,-,N/A,,Unknown,320,2013-09-20 00:56:00
8:56 PM,59.0,50.0,72,29.87,-9999.0,NW,16.1,-,N/A,,Unknown,320,2013-09-20 01:56:00
9:56 PM,57.9,48.9,72,29.87,-9999.0,NW,10.4,-,N/A,,Unknown,310,2013-09-20 02:56:00
10:56 PM,57.0,50.0,77,29.88,-9999.0,NW,16.1,23.0,N/A,,Unknown,310,2013-09-20 03:56:00
11:56 PM,55.9,51.1,84,29.87,-9999.0,WNW,13.8,18.4,N/A,,Unknown,300,2013-09-20 04:56:00